Caldwell, NJ

3:41 PM EDT on July 21, 2019 (GMT -0400)
Essex County

Weather History for KCDW - May, 2019

Change the Weather History Date:

Sunday, May 12, 2019

  Actual Average Record
Temperature  
Mean Temperature 50 °F -  
Max Temperature 57 °F 71 °F 90 °F (1953)
Min Temperature 43 °F 46 °F 30 °F (1983)
Degree Days  
Heating Degree Days 14    
Moisture  
Dew Point 46 °F    
Average Humidity 94    
Maximum Humidity 100    
Minimum Humidity 84    
Precipitation  
Precipitation 1.79 in - - ()
Sea Level Pressure  
Sea Level Pressure 29.95 in    
Wind  
Wind Speed 9 mph (ENE)    
Max Wind Speed 17 mph    
Max Gust Speed 25 mph    
Visibility 4 miles    
Events Rain    
Averages and records for this station are not official NWS values.
T = Trace of Precipitation, MM = Missing Value Source: NWS Daily Summary

Daily Weather History Graph

Daily Weather History Graph

Search for Another Location

Airport or City:

Astronomy

May. 12, 2019 Rise Set
Actual Time 5:42 AM EDT 8:04 PM EDT
Civil Twilight 5:12 AM EDT 8:35 PM EDT
Nautical Twilight 4:33 AM EDT 9:13 PM EDT
Astronomical Twilight 3:51 AM EDT 9:56 PM EDT
Moon 1:00 PM EDT (5/12) 2:24 AM EDT (5/12)
Length of Visible Light 15h 23m
Length of Day
14h 21m
First Quarter, 57% of the Moon is Illuminated
May 12
First Quarter
May 18
Full
May 26
Last Quarter
Jun 3
New
Jun 10
First Quarter

Hourly Weather History & Observations

Time (EDT) Temp. Windchill Dew Point Humidity Pressure Visibility Wind Dir Wind Speed Gust Speed Precip Events Conditions
12:53 AM 57.0 °F - 54.0 °F 89% 29.99 in 10.0 mi East 3.5 mph - 0.00 in   Overcast
1:53 AM 55.9 °F - 51.1 °F 84% 30.00 in 4.0 mi ESE 4.6 mph - 0.05 in Rain Rain
2:53 AM 54.0 °F - 51.1 °F 90% 30.00 in 2.5 mi ENE 8.1 mph - 0.12 in Rain Rain
3:02 AM 53.1 °F - 50.0 °F 89% 29.97 in 4.0 mi East 8.1 mph - 0.01 in Rain Light Rain
3:44 AM 52.0 °F - 51.1 °F 97% 29.97 in 3.0 mi ENE 9.2 mph - 0.04 in Rain Light Rain
3:51 AM 51.8 °F - 50.0 °F 94% 29.97 in 2.5 mi ENE 9.2 mph 19.6 mph 0.05 in Rain Light Rain
3:53 AM 52.0 °F - 50.0 °F 93% 29.99 in 2.5 mi ENE 6.9 mph 19.6 mph 0.05 in Rain Light Rain
4:13 AM 51.1 °F - 50.0 °F 96% 29.98 in 1.8 mi NNE 4.6 mph 18.4 mph 0.08 in Rain Heavy Rain
4:23 AM 51.1 °F - 50.0 °F 96% 29.99 in 2.0 mi NE 6.9 mph - 0.12 in Rain Rain
4:47 AM 51.8 °F - 48.2 °F 88% 29.95 in 3.0 mi East 12.7 mph - 0.18 in Rain Light Rain
4:53 AM 50.0 °F - 50.0 °F 100% 29.97 in 3.0 mi East 12.7 mph - 0.18 in Rain Light Rain
5:01 AM 51.1 °F - 50.0 °F 96% 29.96 in 3.0 mi ENE 8.1 mph - 0.01 in Rain Light Rain
5:38 AM 51.1 °F - 50.0 °F 96% 29.97 in 2.5 mi ENE 9.2 mph - 0.07 in Rain Rain
5:49 AM 50.0 °F - 50.0 °F 100% 29.96 in 2.5 mi ENE 10.4 mph - 0.08 in Rain Light Rain
5:53 AM 50.0 °F - 50.0 °F 100% 29.98 in 2.5 mi ENE 12.7 mph 18.4 mph 0.09 in Rain Light Rain
6:09 AM 50.0 °F - 48.0 °F 93% 29.97 in 4.0 mi East 15.0 mph 25.3 mph 0.02 in Rain Light Rain
6:30 AM 50.0 °F - 48.9 °F 96% 29.97 in 2.5 mi East 10.4 mph - 0.05 in Rain Rain
6:53 AM 48.9 °F - 46.9 °F 93% 29.99 in 1.8 mi ENE 9.2 mph 21.9 mph 0.11 in Rain Rain
7:53 AM 48.0 °F - 46.9 °F 96% 30.01 in 1.5 mi ENE 10.4 mph 20.7 mph 0.09 in Rain Light Rain
8:53 AM 46.9 °F - 46.0 °F 97% 30.02 in 1.5 mi ENE 9.2 mph 19.6 mph 0.06 in Rain Light Rain
9:53 AM 46.9 °F - 46.0 °F 97% 29.99 in 2.0 mi ENE 13.8 mph 21.9 mph 0.08 in Rain Light Rain
10:53 AM 46.9 °F - 45.0 °F 93% 29.99 in 3.0 mi East 15.0 mph - 0.07 in Rain Light Rain
11:05 AM 46.9 °F - 45.0 °F 93% 29.96 in 2.0 mi East 13.8 mph 20.7 mph 0.04 in Rain Rain
11:53 AM 46.9 °F - 45.0 °F 93% 29.96 in 4.0 mi East 11.5 mph 21.9 mph 0.16 in Rain Light Rain
12:10 PM 46.9 °F - 45.0 °F 93% 29.94 in 2.0 mi ENE 10.4 mph 20.7 mph 0.05 in Rain Rain
12:53 PM 46.9 °F - 46.0 °F 97% 29.92 in 2.5 mi East 17.3 mph 24.2 mph 0.14 in Rain Rain
12:55 PM 46.9 °F - 45.0 °F 93% 29.90 in 2.5 mi East 15.0 mph 24.2 mph 0.01 in Rain Rain
12:57 PM 46.9 °F - 45.0 °F 93% 29.90 in 3.0 mi East 13.8 mph 24.2 mph 0.01 in Rain Rain
1:53 PM 46.9 °F - 45.0 °F 93% 29.92 in 2.0 mi East 17.3 mph - 0.24 in Rain Rain
2:53 PM 46.9 °F - 45.0 °F 93% 29.92 in 2.5 mi East 13.8 mph - 0.15 in Rain Rain
3:53 PM 46.9 °F - 45.0 °F 93% 29.92 in 2.5 mi East 11.5 mph 20.7 mph 0.10 in Rain Light Rain
4:53 PM 46.9 °F - 45.0 °F 93% 29.92 in 2.5 mi ENE 9.2 mph 19.6 mph 0.07 in Rain Light Rain
5:46 PM 46.0 °F 40.6 °F 44.1 °F 93% 29.90 in 10.0 mi ENE 11.5 mph 21.9 mph 0.01 in Rain Light Rain
5:53 PM 46.0 °F 39.3 °F 43.0 °F 89% 29.91 in 10.0 mi ENE 16.1 mph 24.2 mph 0.01 in Rain Light Rain
6:36 PM 46.0 °F 41.0 °F 44.1 °F 93% 29.89 in 10.0 mi ENE 10.4 mph - 0.01 in Rain Light Rain
6:53 PM 46.0 °F 41.4 °F 44.1 °F 93% 29.91 in 10.0 mi ENE 9.2 mph - 0.01 in Rain Light Rain
7:00 PM 46.0 °F 41.9 °F 44.1 °F 93% 29.88 in 10.0 mi NE 8.1 mph - 0.00 in Rain Light Rain
7:53 PM 45.0 °F 40.6 °F 43.0 °F 93% 29.91 in 10.0 mi NE 8.1 mph - 0.00 in   Overcast
8:53 PM 44.1 °F 39.5 °F 43.0 °F 96% 29.94 in 3.0 mi ENE 8.1 mph - N/A   Overcast
9:08 PM 44.1 °F 40.8 °F 43.0 °F 96% 29.92 in 2.5 mi ENE 5.8 mph - 0.00 in Rain Light Rain
9:24 PM 44.1 °F 39.5 °F 43.0 °F 96% 29.92 in 3.0 mi ENE 8.1 mph - 0.01 in   Overcast
9:32 PM 44.1 °F - 43.0 °F 96% 29.92 in 2.5 mi North - - 0.01 in   Overcast
9:44 PM 44.1 °F 40.1 °F 42.1 °F 93% 29.91 in 3.0 mi ENE 6.9 mph - 0.01 in   Overcast
9:53 PM 44.1 °F 40.1 °F 43.0 °F 96% 29.94 in 3.0 mi Variable 6.9 mph - 0.01 in   Overcast
10:53 PM 44.1 °F 39.5 °F 42.1 °F 93% 29.95 in 9.0 mi ENE 8.1 mph - N/A   Overcast
11:05 PM 44.1 °F 41.5 °F 42.1 °F 93% 29.93 in 7.0 mi ENE 4.6 mph - N/A   Overcast
11:53 PM 43.0 °F 38.2 °F 42.1 °F 97% 29.94 in 3.0 mi ENE 8.1 mph - N/A   Overcast